User: anonymous   Login
Location: Gipe Farm
(40.9466°N, 95.5370°W)
Time: 04:28:24
(UTC-06:00)
Language:

Cosmos 1842 - Orbit

View from above orbital plane
View from above orbital plane
View from above satellite
View from above satellite

Ground track
Ground track

The orbit data is extracted from the following two-line orbital elements,

1 17911U 87038A   17321.61538429 +.00000372 +00000-0 +20114-4 0  9991
2 17911 082.5255 043.5191 0012822 079.7011 280.5664 15.11496604664689
Epoch (UTC): 17 November 2017 14:46:09
Eccentricity: 0.0012822
inclination: 82.5255°
perigee height: 523 km
apogee height: 540 km
right ascension of ascending node: 43.5191°
argument of perigee: 79.7011°
revolutions per day: 15.11496604
mean anomaly at epoch: 280.5664°
orbit number at epoch: 66468

The dashed part of the orbit path shows where the satellite is in the earth's shadow,  

DLR